DateTimeUTC,F1_A11,F1_S11,BsB_S11,BsG_S11,BsR_S11,BbsB_S11,BbsG_S11,BbsR_S11,BaB_A11,BaG_A11,BaR_A11,Tu_S11,T_S11,Uu_S11,U_S11,P_S11,T1_A11
2021-11-15T17:00:00Z,00000200,21000000,,,,,,,0000.09,0000.11,0000.01,19.8,26.6,,00.0,0626.5,31.1
2021-11-15T17:01:00Z,00000200,21000000,,,,,,,-000.24,-000.10,0000.22,19.9,26.6,,00.0,0626.5,31.1
2021-11-15T17:02:00Z,00000200,21000000,,,,,,,0000.12,0000.04,-000.38,19.8,26.6,,00.0,0626.6,31.1
2021-11-15T17:03:00Z,00000200,61000000,,,,,,,-000.02,0000.11,0000.11,19.8,26.6,,00.0,0626.6,31.1
2021-11-15T17:04:00Z,00000200,41000000,-000.28,0000.17,0000.19,-000.18,0000.05,-000.02,0000.42,0000.17,0000.25,19.9,26.5,,00.0,0627.4,31.1
2021-11-15T17:05:00Z,00000200,01000000,0000.83,0000.28,-000.02,-000.11,-000.08,-000.31,-000.36,0000.06,0000.15,20.0,26.4,,00.0,0627.4,31.0
2021-11-15T17:06:00Z,00000200,01000000,0000.30,-000.03,-000.02,0000.28,-000.20,-000.35,0000.57,-000.03,0000.09,20.0,26.4,,00.0,0627.5,31.1
2021-11-15T17:07:00Z,00000200,01000000,-000.33,0000.40,-000.08,-000.07,0000.02,-000.10,0000.08,-000.04,-000.25,20.1,26.4,,00.0,0627.5,31.1
2021-11-15T17:08:00Z,00000200,01000000,-000.11,0000.19,0000.16,0000.38,0000.04,0000.10,-000.07,0000.42,0000.28,20.1,26.4,,00.0,0627.5,31.1
2021-11-15T17:09:00Z,00000200,01000000,0000.41,0000.18,0000.06,-000.29,0000.31,-000.40,-000.06,-000.14,0000.34,20.1,26.5,,00.0,0627.5,31.1
2021-11-15T17:10:00Z,00000200,01000000,0000.26,0000.23,0000.31,0000.17,-000.12,-000.14,0000.56,0000.54,-000.13,20.2,26.5,,00.0,0627.5,31.1
2021-11-15T17:11:00Z,00000200,01000000,-000.44,0000.36,-000.27,-000.09,0000.10,-000.30,-000.14,-000.52,0000.04,20.1,26.5,,00.0,0627.5,31.1
2021-11-15T17:12:00Z,00000200,01000000,0000.21,0000.12,0000.19,0000.17,-000.08,-000.05,-000.38,0000.31,0000.13,20.0,26.5,,00.0,0627.5,31.0
2021-11-15T17:13:00Z,00000200,01000000,0000.17,-000.08,-000.07,0000.16,-000.01,-000.35,0000.31,0000.14,0000.03,20.0,26.4,,00.0,0627.5,31.1
2021-11-15T17:14:00Z,00000200,01000000,0000.22,0000.07,-000.25,0000.31,-000.29,-000.19,0000.54,0000.42,-000.06,19.9,26.4,,00.0,0627.5,31.0
2021-11-15T17:15:00Z,00000200,01000000,0000.51,-000.10,0000.08,0000.32,-000.18,-000.33,-000.29,-000.00,0000.40,19.8,26.4,,00.0,0627.5,31.0
2021-11-15T17:16:00Z,00000200,01000000,-000.49,0000.23,0000.09,-000.27,-000.30,-000.16,0000.53,-000.03,-000.14,19.7,26.3,,00.0,0627.5,31.0
2021-11-15T17:17:00Z,00000200,01000000,-000.08,0000.05,-000.18,0000.17,-000.16,-000.17,-000.12,0000.32,0000.09,19.6,26.3,,00.0,0627.5,31.0
2021-11-15T17:18:00Z,00000200,01000000,0000.54,0000.09,-000.18,-000.11,0000.10,-000.12,0000.05,-000.03,-000.19,19.6,26.2,,00.0,0627.5,31.0
2021-11-15T17:19:00Z,00000200,01000000,0000.47,0000.34,-000.12,0000.31,-000.05,0000.04,-000.11,-000.48,-000.03,19.6,26.2,,00.0,0627.5,31.0
2021-11-15T17:20:00Z,00000200,01000000,0000.02,0000.09,0000.21,-000.58,-000.22,-000.09,0000.31,0000.44,0000.49,19.6,26.2,,00.0,0627.5,31.0
2021-11-15T17:21:00Z,00000200,01000000,-000.06,-000.19,-000.12,-000.09,-000.18,-000.41,-000.10,-000.16,-000.27,19.6,26.1,,00.0,0627.5,31.0
2021-11-15T17:22:00Z,00000200,01000000,0000.27,0000.20,-000.00,0000.06,-000.28,-000.24,0000.21,0000.30,0000.50,19.7,26.1,,00.0,0627.6,31.0
2021-11-15T17:23:00Z,00000200,01000000,0000.43,0000.03,0000.28,-000.08,-000.23,-000.38,-000.23,-000.14,-000.22,19.7,26.2,,00.0,0627.6,31.0
2021-11-15T17:24:00Z,00000200,01000000,0000.83,0000.43,-000.15,0000.13,0000.24,-000.49,0000.54,0000.56,0000.03,19.7,26.2,,00.0,0627.6,31.1
2021-11-15T17:25:00Z,00000200,01000000,-000.56,-000.06,0000.08,0000.32,0000.14,-000.27,0000.02,-000.07,0000.04,19.8,26.2,,00.0,0627.7,31.0
2021-11-15T17:26:00Z,00000200,01000000,-000.44,0000.26,0000.16,0000.32,0000.15,-000.55,0000.04,-000.22,0000.20,19.8,26.2,,00.0,0627.6,31.0
2021-11-15T17:27:00Z,00000200,01000000,0000.11,0000.31,-000.18,0000.48,-000.08,-000.04,-000.09,0000.26,0000.44,19.9,26.2,,00.0,0627.6,31.0
2021-11-15T17:28:00Z,00000200,01000000,0000.00,0000.16,0000.02,-000.13,-000.11,-000.41,0000.77,0000.37,-000.01,19.9,26.3,,00.0,0627.6,31.0
2021-11-15T17:29:00Z,00000200,01000000,0000.15,0000.11,0000.12,0000.28,0000.02,-000.36,-000.05,0000.22,-000.10,20.0,26.3,,00.0,0627.6,31.1
2021-11-15T17:30:00Z,00000200,01000000,0000.25,-000.08,-000.17,0000.16,-000.09,-000.72,0000.30,0000.12,0000.10,20.0,26.3,,00.0,0627.6,31.1
2021-11-15T17:31:00Z,00000200,01000000,0000.66,0000.08,0000.09,0000.08,0000.13,-000.16,-000.07,-000.09,0000.32,20.1,26.3,,00.0,0627.6,31.1
2021-11-15T17:32:00Z,00000200,01000000,0000.53,-000.33,0000.20,-000.26,-000.09,0000.03,0000.28,0000.22,-000.21,20.1,26.3,,00.0,0627.6,31.1
2021-11-15T17:33:00Z,00000200,01000000,0000.20,-000.11,0000.45,0000.03,0000.16,-000.06,0000.12,0000.24,0000.18,20.1,26.3,,00.0,0627.6,31.1
2021-11-15T17:34:00Z,00000200,01000000,-000.04,-000.02,0000.11,-000.25,-000.05,-000.11,-000.05,-000.11,0000.12,20.1,26.3,,00.0,0627.6,31.1
2021-11-15T17:35:00Z,00000200,01000000,-000.54,0000.02,-000.22,0000.88,-000.06,-000.38,0000.34,0000.36,0000.29,20.1,26.3,,00.0,0627.7,31.1
2021-11-15T17:36:00Z,00000200,01000000,0000.69,-000.23,0000.19,0000.12,0000.25,-000.02,-000.17,-000.19,0000.06,20.1,26.3,,00.0,0627.7,31.1
2021-11-15T17:37:00Z,00000200,01000000,-000.13,0000.03,-000.07,0001.10,0000.40,-000.34,0000.48,0000.31,0000.11,20.1,26.4,,00.0,0627.7,31.1
2021-11-15T17:38:00Z,00000200,01000000,-000.19,-000.15,-000.09,-000.59,0000.31,0000.21,-000.14,0000.14,-000.21,20.2,26.4,,00.0,0627.7,31.1
2021-11-15T17:39:00Z,00000200,01000000,0000.32,-000.11,0000.16,-000.09,-000.23,-000.43,-000.10,0000.27,0000.15,20.2,26.4,,00.0,0627.7,31.1
2021-11-15T17:40:00Z,00000200,01000000,0000.07,0000.19,-000.18,0000.12,-000.10,-000.42,0000.67,-000.06,0000.40,20.2,26.4,,00.0,0627.8,31.1
2021-11-15T17:41:00Z,00000200,01000000,0000.19,-000.07,0000.24,0000.61,0000.32,-000.15,0000.09,0000.49,0000.03,20.2,26.4,,00.0,0627.7,31.1
2021-11-15T17:42:00Z,00000200,01000000,0000.04,-000.06,0000.19,-000.09,-000.10,-000.26,-000.15,-000.02,0000.01,20.3,26.5,,00.0,0627.7,31.1
2021-11-15T17:43:00Z,00000200,01000000,0000.21,0000.26,0000.12,0000.47,-000.05,-000.09,0000.33,0000.03,0000.53,20.2,26.5,,00.0,0627.7,31.1
2021-11-15T17:44:00Z,00000200,01000000,0000.23,0000.19,-000.25,0000.21,0000.22,-000.36,-000.03,-000.20,-000.51,20.2,26.5,,00.0,0627.7,31.1
2021-11-15T17:45:00Z,00000200,01000000,0000.26,-000.00,0000.25,0000.39,-000.39,-000.16,0000.17,0000.49,0000.19,20.1,26.4,,00.0,0627.8,31.1
2021-11-15T17:46:00Z,00000200,01000000,-000.30,0000.34,0000.05,-000.13,-000.10,-000.22,0000.10,0000.12,0000.06,20.0,26.4,,00.0,0627.8,31.0
2021-11-15T17:47:00Z,00000200,01000000,0000.50,0000.49,-000.01,0000.20,0000.03,-000.22,-000.11,0000.10,0000.43,19.9,26.4,,00.0,0627.7,31.0
2021-11-15T17:48:00Z,00000200,01000000,0000.45,0000.43,0000.34,-000.25,0000.02,0000.23,0000.39,-000.10,-000.29,19.8,26.3,,00.0,0627.7,31.0
2021-11-15T17:49:00Z,00000200,01000000,0000.36,0000.06,0000.25,0000.30,-000.10,-000.08,0000.02,0000.45,0000.30,19.8,26.3,,00.0,0627.7,31.0
2021-11-15T17:50:00Z,00000200,01000000,0000.46,0000.50,0000.16,0000.15,0000.16,-000.61,0000.05,-000.67,-000.40,19.8,26.3,,00.0,0627.7,31.0
2021-11-15T17:51:00Z,00000200,01000000,0000.66,-000.16,-000.13,0000.05,0000.32,-000.52,0000.11,0000.42,0000.76,19.8,26.2,,00.0,0627.8,31.0
2021-11-15T17:52:00Z,00000200,01000000,0000.22,-000.30,0000.24,0000.56,0000.18,-000.11,0000.15,-000.25,-000.29,19.8,26.2,,00.0,0627.8,31.0
2021-11-15T17:53:00Z,00000200,01000000,0000.34,0000.29,0000.16,-000.34,0000.06,-000.41,0000.16,0000.40,0000.30,19.8,26.3,,00.0,0627.8,31.0
2021-11-15T17:54:00Z,00000200,01000000,0000.05,0000.24,0000.12,0000.52,-000.26,0000.18,0000.12,0000.70,-000.42,19.9,26.3,,00.0,0627.8,31.0
2021-11-15T17:55:00Z,00000200,01000000,-000.47,-000.04,0000.08,-000.59,0000.03,0000.10,-000.12,-000.65,0000.28,19.9,26.3,,00.0,0627.8,31.0
2021-11-15T17:56:00Z,00000200,01000000,-000.24,0000.17,0000.14,-000.06,-000.06,0000.25,0000.46,0000.39,0000.28,19.9,26.3,,00.0,0627.8,31.0
2021-11-15T17:57:00Z,00000200,41000000,,,,,,,0000.42,0000.30,0000.46,20.0,26.3,,00.0,0627.9,31.0
2021-11-15T17:58:00Z,00000200,61000000,,,,,,,-000.04,-000.03,-000.18,19.7,26.4,,00.0,0627.0,31.1
2021-11-15T17:59:00Z,00000200,21000000,,,,,,,-000.50,-000.33,-000.31,19.7,26.5,,00.0,0627.0,31.1
